Home   Weather   Phnom Penh   Past weeks

Flag for Cambodia Past Weather in Phnom Penh, Cambodia — Yesterday and Last 2 Weeks

Now
79 °F

Passing clouds.


Feels Like: 81 °F
Forecast: 77 / 88 °F
Wind: 10 mph from Northeast

Location: Phnom-Penh / Pochentong

Current Time: Dec 10, 2016 at 8:15:13 am

Latest Report: Dec 10, 2016 at 7:30 am


Visibility: N/A

Pressure: 29.80 "Hg

Humidity: 70%

Dew Point: 68 °F

Location of Phnom PenhLocation

Past Weather in Phnom Penh — Graph

°F

Phnom Penh Temperature Yesterday

Maximum temperature yesterday: 88 °F (at 1:00 pm)
Minimum temperature yesterday: 77 °F (at 6:00 am)
Average temperature yesterday: 83 °F

High & Low Weather Summary for the Past Weeks

 TemperatureHumidityPressure
High104 °F (Dec 5, 10:30 am)100% (Nov 25, 6:00 am)29.92 "Hg (Nov 25, 6:00 am)
Low75 °F (Dec 5, 9:00 pm)49% (Nov 26, 2:30 pm)29.68 "Hg (Nov 25, 2:30 pm)
Average83 °F74%29.81 "Hg
* Reported Nov 25 6:00 am — Dec 10 6:30 am, Phnom Penh, Weather by CustomWeather, © 2016

Note: Actual official high and low records may vary slightly from our data, if they occured in-between our weather recording intervals... More about our weather records

Advertising

Phnom Penh Weather History for the Previous 24 Hours

Scroll right to see more
 ConditionsComfort  
Time TempWeatherWind HumidityBarometerVisibility
6:30 am
Sat, Dec 10
77 °FPassing clouds.6 mph74%29.77 "HgN/A
6:00 am77 °FPassing clouds.7 mph74%29.74 "HgN/A
2:30 am77 °FClear.2 mph89%29.74 "Hg6 mi
2:00 am79 °FClear.2 mph84%29.77 "Hg6 mi
1:30 am79 °FClear.1 mph79%29.77 "Hg6 mi
1:00 am79 °FClear.2 mph79%29.77 "Hg6 mi
12:30 am79 °FClear.2 mph79%29.77 "Hg6 mi
12:00 am81 °FClear.2 mph79%29.80 "Hg6 mi
11:30 pm
Fri, Dec 9
81 °FClear.2 mph84%29.80 "Hg6 mi
11:00 pm81 °FPassing clouds.1 mph84%29.77 "Hg6 mi
10:30 pm81 °FPassing clouds.1 mph84%29.80 "Hg6 mi
10:00 pm81 °FPassing clouds.3 mph84%29.80 "Hg6 mi
9:30 pm81 °FPassing clouds.5 mph84%29.77 "Hg6 mi
9:00 pm82 °FPassing clouds.5 mph79%29.77 "Hg6 mi
8:30 pm82 °FPassing clouds.3 mph74%29.77 "Hg6 mi
8:00 pm82 °FPassing clouds.6 mph74%29.77 "Hg6 mi
7:30 pm82 °FPassing clouds.6 mph74%29.77 "Hg6 mi
7:00 pm84 °FPassing clouds.3 mph70%29.74 "Hg6 mi
6:30 pm84 °FPassing clouds.5 mph66%29.74 "Hg6 mi
6:00 pm84 °FPassing clouds.7 mph66%29.74 "Hg6 mi
5:30 pm86 °FPassing clouds.8 mph55%29.71 "HgN/A
5:00 pm88 °FPassing clouds.9 mph52%29.71 "HgN/A
4:30 pm88 °FPassing clouds.10 mph52%29.71 "HgN/A
4:00 pm88 °FPassing clouds.10 mph52%29.68 "HgN/A
3:30 pm88 °FPassing clouds.12 mph52%29.68 "HgN/A
3:00 pm88 °FPassing clouds.10 mph52%29.68 "HgN/A
2:30 pm88 °FPassing clouds.13 mph52%29.68 "HgN/A
2:00 pm88 °FPassing clouds.14 mph52%29.68 "HgN/A
1:30 pm88 °FPassing clouds.13 mph49%29.71 "HgN/A
1:00 pm88 °FPassing clouds.14 mph52%29.71 "HgN/A
12:30 pm86 °FPassing clouds.13 mph55%29.74 "HgN/A
12:00 pm86 °FPassing clouds.12 mph55%29.74 "HgN/A
11:30 am86 °FPassing clouds.13 mph59%29.77 "HgN/A
11:00 am84 °FPassing clouds.15 mph62%29.77 "HgN/A
10:30 am84 °FPassing clouds.17 mph62%29.77 "HgN/A
10:00 am82 °FPassing clouds.15 mph62%29.80 "HgN/A
9:30 am82 °FPassing clouds.15 mph62%29.80 "HgN/A
9:00 am82 °FPassing clouds.12 mph66%29.80 "HgN/A
8:30 am81 °FPassing clouds.12 mph70%29.80 "HgN/A
8:00 am79 °FPassing clouds.10 mph74%29.77 "HgN/A
Weather by CustomWeather, © 2016

See weather overviewHow to use our weather pages